owner,sensor,date,latitude,longitude,vertical_datum,wind_speed,wind_to_direction,wind_speed_of_gust,qcFlag 
DISL,ioos:station:DISL:MBLA:1,2016-03-01T00:00:00Z,30.4367,-88.0117,14.2,2.29,189.1,-9999.0,'1111122,1111122,1111122' 
DISL,ioos:station:DISL:MBLA:1,2016-03-01T00:30:00Z,30.4367,-88.0117,14.2,2.41,186.7,-9999.0,'1111122,1111122,1111122' 
DISL,ioos:station:DISL:MBLA:1,2016-03-01T01:00:00Z,30.4367,-88.0117,14.2,2.51,172.7,-9999.0,'1111122,1111122,1111122' 
DISL,ioos:station:DISL:MBLA:1,2016-03-01T01:30:00Z,30.4367,-88.0117,14.2,3.91,180.0,-9999.0,'1111122,1111122,1111122' 
DISL,ioos:station:DISL:MBLA:1,2016-03-01T02:00:00Z,30.4367,-88.0117,14.2,4.69,180.4,-9999.0,'1111122,1111122,1111122' 
DISL,ioos:station:DISL:MBLA:1,2016-03-01T02:30:00Z,30.4367,-88.0117,14.2,4.03,173.0,-9999.0,'1111122,1111122,1111122' 
DISL,ioos:station:DISL:MBLA:1,2016-03-01T03:00:00Z,30.4367,-88.0117,14.2,3.45,169.7,-9999.0,'1111122,1111122,1111122' 
DISL,ioos:station:DISL:MBLA:1,2016-03-01T03:30:00Z,30.4367,-88.0117,14.2,3.78,166.2,-9999.0,'1111122,1111122,1111122' 
DISL,ioos:station:DISL:MBLA:1,2016-03-01T04:00:00Z,30.4367,-88.0117,14.2,4.2,169.4,-9999.0,'1111122,1111122,1111122' 
DISL,ioos:station:DISL:MBLA:1,2016-03-01T04:30:00Z,30.4367,-88.0117,14.2,3.96,165.8,-9999.0,'1111122,1111122,1111122' 
DISL,ioos:station:DISL:MBLA:1,2016-03-01T05:00:00Z,30.4367,-88.0117,14.2,3.71,170.1,-9999.0,'1111122,1111122,1111122' 
DISL,ioos:station:DISL:MBLA:1,2016-03-01T05:30:00Z,30.4367,-88.0117,14.2,5.02,173.7,-9999.0,'1111122,1111122,1111122' 
DISL,ioos:station:DISL:MBLA:1,2016-03-01T06:00:00Z,30.4367,-88.0117,14.2,3.0,164.8,-9999.0,'1111122,1111122,1111122' 
DISL,ioos:station:DISL:MBLA:1,2016-03-01T06:30:00Z,30.4367,-88.0117,14.2,3.23,162.5,-9999.0,'1111122,1111122,1111122' 
DISL,ioos:station:DISL:MBLA:1,2016-03-01T07:00:00Z,30.4367,-88.0117,14.2,2.74,151.7,-9999.0,'1111122,1111122,1111122' 
DISL,ioos:station:DISL:MBLA:1,2016-03-01T07:30:00Z,30.4367,-88.0117,14.2,3.52,162.7,-9999.0,'1111122,1111122,1111122' 
DISL,ioos:station:DISL:MBLA:1,2016-03-01T08:00:00Z,30.4367,-88.0117,14.2,2.75,162.4,-9999.0,'1111122,1111122,1111122' 
DISL,ioos:station:DISL:MBLA:1,2016-03-01T08:30:00Z,30.4367,-88.0117,14.2,4.12,169.5,-9999.0,'1111122,1111122,1111122' 
DISL,ioos:station:DISL:MBLA:1,2016-03-01T09:00:00Z,30.4367,-88.0117,14.2,3.5,150.9,-9999.0,'1111122,1111122,1111122' 
DISL,ioos:station:DISL:MBLA:1,2016-03-01T09:30:00Z,30.4367,-88.0117,14.2,2.81,142.5,-9999.0,'1111122,1111122,1111122' 
DISL,ioos:station:DISL:MBLA:1,2016-03-01T10:00:00Z,30.4367,-88.0117,14.2,3.16,139.4,-9999.0,'1111122,1111122,1111122' 
DISL,ioos:station:DISL:MBLA:1,2016-03-01T10:30:00Z,30.4367,-88.0117,14.2,2.29,129.4,-9999.0,'1111122,1111122,1111122' 
DISL,ioos:station:DISL:MBLA:1,2016-03-01T11:00:00Z,30.4367,-88.0117,14.2,3.35,136.7,-9999.0,'1111122,1111122,1111122' 
DISL,ioos:station:DISL:MBLA:1,2016-03-01T11:30:00Z,30.4367,-88.0117,14.2,2.97,125.8,-9999.0,'1111122,1111122,1111122' 
DISL,ioos:station:DISL:MBLA:1,2016-03-01T12:00:00Z,30.4367,-88.0117,14.2,3.03,120.9,-9999.0,'1111122,1111122,1111122' 
DISL,ioos:station:DISL:MBLA:1,2016-03-01T12:30:00Z,30.4367,-88.0117,14.2,3.63,129.9,-9999.0,'1111122,1111122,1111122' 
DISL,ioos:station:DISL:MBLA:1,2016-03-01T13:00:00Z,30.4367,-88.0117,14.2,4.38,132.7,-9999.0,'1111122,1111122,1111122' 
DISL,ioos:station:DISL:MBLA:1,2016-03-01T13:30:00Z,30.4367,-88.0117,14.2,4.04,128.3,-9999.0,'1111122,1111122,1111122' 
DISL,ioos:station:DISL:MBLA:1,2016-03-01T14:00:00Z,30.4367,-88.0117,14.2,4.16,130.2,-9999.0,'1111122,1111122,1111122' 
DISL,ioos:station:DISL:MBLA:1,2016-03-01T14:30:00Z,30.4367,-88.0117,14.2,3.93,139.1,-9999.0,'1111122,1111122,1111122' 
DISL,ioos:station:DISL:MBLA:1,2016-03-01T15:00:00Z,30.4367,-88.0117,14.2,2.4,140.1,-9999.0,'1111122,1111122,1111122' 
DISL,ioos:station:DISL:MBLA:1,2016-03-01T15:30:00Z,30.4367,-88.0117,14.2,1.81,160.0,-9999.0,'1111122,1111122,1111122' 
DISL,ioos:station:DISL:MBLA:1,2016-03-01T16:00:00Z,30.4367,-88.0117,14.2,1.77,153.4,-9999.0,'1111122,1111122,1111122' 
DISL,ioos:station:DISL:MBLA:1,2016-03-01T16:30:00Z,30.4367,-88.0117,14.2,0.29,188.0,-9999.0,'1111122,1111122,1111122' 
DISL,ioos:station:DISL:MBLA:1,2016-03-01T17:00:00Z,30.4367,-88.0117,14.2,2.15,187.6,-9999.0,'1111122,1111122,1111122' 
DISL,ioos:station:DISL:MBLA:1,2016-03-01T17:30:00Z,30.4367,-88.0117,14.2,3.42,188.8,-9999.0,'1111122,1111122,1111122' 
DISL,ioos:station:DISL:MBLA:1,2016-03-01T18:00:00Z,30.4367,-88.0117,14.2,4.95,204.4,-9999.0,'1111122,1111122,1111122' 
DISL,ioos:station:DISL:MBLA:1,2016-03-01T18:30:00Z,30.4367,-88.0117,14.2,5.39,201.1,-9999.0,'1111122,1111122,1111122' 
DISL,ioos:station:DISL:MBLA:1,2016-03-01T19:00:00Z,30.4367,-88.0117,14.2,5.96,203.5,-9999.0,'1111122,1111122,1111122' 
DISL,ioos:station:DISL:MBLA:1,2016-03-01T19:30:00Z,30.4367,-88.0117,14.2,6.92,212.4,-9999.0,'1111122,1111122,1111122' 
DISL,ioos:station:DISL:MBLA:1,2016-03-01T20:00:00Z,30.4367,-88.0117,14.2,7.11,204.1,-9999.0,'1111122,1111122,1111122' 
DISL,ioos:station:DISL:MBLA:1,2016-03-01T20:30:00Z,30.4367,-88.0117,14.2,6.52,204.9,-9999.0,'1111122,1111122,1111122' 
DISL,ioos:station:DISL:MBLA:1,2016-03-01T21:00:00Z,30.4367,-88.0117,14.2,6.44,197.5,-9999.0,'1111122,1111122,1111122' 
DISL,ioos:station:DISL:MBLA:1,2016-03-01T21:30:00Z,30.4367,-88.0117,14.2,6.14,191.3,-9999.0,'1111122,1111122,1111122' 
DISL,ioos:station:DISL:MBLA:1,2016-03-01T22:00:00Z,30.4367,-88.0117,14.2,6.57,198.2,-9999.0,'1111122,1111122,1111122' 
DISL,ioos:station:DISL:MBLA:1,2016-03-01T22:30:00Z,30.4367,-88.0117,14.2,6.06,186.3,-9999.0,'1111122,1111122,1111122' 
DISL,ioos:station:DISL:MBLA:1,2016-03-01T23:00:00Z,30.4367,-88.0117,14.2,6.42,192.4,-9999.0,'1111122,1111122,1111122' 
DISL,ioos:station:DISL:MBLA:1,2016-03-01T23:30:00Z,30.4367,-88.0117,14.2,5.09,204.3,-9999.0,'1111122,1111122,1111122' 
DISL,ioos:station:DISL:MBLA:1,2016-03-02T00:00:00Z,30.4367,-88.0117,14.2,4.52,219.8,-9999.0,'1111122,1111122,1111122' 
DISL,ioos:station:DISL:MBLA:1,2016-03-02T00:30:00Z,30.4367,-88.0117,14.2,6.03,189.4,-9999.0,'1111122,1111122,1111122' 
DISL,ioos:station:DISL:MBLA:1,2016-03-02T01:00:00Z,30.4367,-88.0117,14.2,4.69,179.9,-9999.0,'1111122,1111122,1111122' 
DISL,ioos:station:DISL:MBLA:1,2016-03-02T01:30:00Z,30.4367,-88.0117,14.2,7.92,201.3,-9999.0,'1111122,1111122,1111122' 
DISL,ioos:station:DISL:MBLA:1,2016-03-02T02:00:00Z,30.4367,-88.0117,14.2,6.87,211.1,-9999.0,'1111122,1111122,1111122' 
DISL,ioos:station:DISL:MBLA:1,2016-03-02T02:30:00Z,30.4367,-88.0117,14.2,6.89,222.5,-9999.0,'1111122,1111122,1111122' 
DISL,ioos:station:DISL:MBLA:1,2016-03-02T03:00:00Z,30.4367,-88.0117,14.2,6.58,216.5,-9999.0,'1111122,1111122,1111122' 
DISL,ioos:station:DISL:MBLA:1,2016-03-02T03:30:00Z,30.4367,-88.0117,14.2,8.27,212.3,-9999.0,'1111122,1111122,1111122' 
DISL,ioos:station:DISL:MBLA:1,2016-03-02T04:00:00Z,30.4367,-88.0117,14.2,7.45,243.3,-9999.0,'1111122,1111122,1111122' 
DISL,ioos:station:DISL:MBLA:1,2016-03-02T04:30:00Z,30.4367,-88.0117,14.2,7.55,237.1,-9999.0,'1111122,1111122,1111122' 
DISL,ioos:station:DISL:MBLA:1,2016-03-02T05:00:00Z,30.4367,-88.0117,14.2,7.74,262.6,-9999.0,'1111122,1111122,1111122' 
DISL,ioos:station:DISL:MBLA:1,2016-03-02T05:30:00Z,30.4367,-88.0117,14.2,6.91,271.6,-9999.0,'1111122,1111122,1111122' 
DISL,ioos:station:DISL:MBLA:1,2016-03-02T06:00:00Z,30.4367,-88.0117,14.2,5.85,295.4,-9999.0,'1111122,1111122,1111122' 
DISL,ioos:station:DISL:MBLA:1,2016-03-02T06:30:00Z,30.4367,-88.0117,14.2,5.6,318.5,-9999.0,'1111122,1111122,1111122' 
DISL,ioos:station:DISL:MBLA:1,2016-03-02T07:00:00Z,30.4367,-88.0117,14.2,10.71,358.4,-9999.0,'1111122,1111122,1111122' 
DISL,ioos:station:DISL:MBLA:1,2016-03-02T07:30:00Z,30.4367,-88.0117,14.2,11.34,351.2,-9999.0,'1111122,1111122,1111122' 
DISL,ioos:station:DISL:MBLA:1,2016-03-02T08:00:00Z,30.4367,-88.0117,14.2,12.9,358.6,-9999.0,'1111122,1111122,1111122' 
DISL,ioos:station:DISL:MBLA:1,2016-03-02T08:30:00Z,30.4367,-88.0117,14.2,11.59,357.5,-9999.0,'1111122,1111122,1111122' 
DISL,ioos:station:DISL:MBLA:1,2016-03-02T09:00:00Z,30.4367,-88.0117,14.2,12.49,359.6,-9999.0,'1111122,1111122,1111122' 
DISL,ioos:station:DISL:MBLA:1,2016-03-02T09:30:00Z,30.4367,-88.0117,14.2,12.28,0.834,-9999.0,'1111122,1111122,1111122' 
DISL,ioos:station:DISL:MBLA:1,2016-03-02T10:00:00Z,30.4367,-88.0117,14.2,10.97,0.819,-9999.0,'1111122,1111122,1111122' 
DISL,ioos:station:DISL:MBLA:1,2016-03-02T10:30:00Z,30.4367,-88.0117,14.2,11.62,1.211,-9999.0,'1111122,1111122,1111122' 
DISL,ioos:station:DISL:MBLA:1,2016-03-02T11:00:00Z,30.4367,-88.0117,14.2,10.59,356.4,-9999.0,'1111122,1111122,1111122' 
DISL,ioos:station:DISL:MBLA:1,2016-03-02T11:30:00Z,30.4367,-88.0117,14.2,9.37,1.564,-9999.0,'1111122,1111122,1111122' 
DISL,ioos:station:DISL:MBLA:1,2016-03-02T12:00:00Z,30.4367,-88.0117,14.2,9.05,13.98,-9999.0,'1111122,1111122,1111122' 
DISL,ioos:station:DISL:MBLA:1,2016-03-02T12:30:00Z,30.4367,-88.0117,14.2,10.1,22.56,-9999.0,'1111122,1111122,1111122' 
DISL,ioos:station:DISL:MBLA:1,2016-03-02T13:00:00Z,30.4367,-88.0117,14.2,10.99,22.88,-9999.0,'1111122,1111122,1111122' 
DISL,ioos:station:DISL:MBLA:1,2016-03-02T13:30:00Z,30.4367,-88.0117,14.2,12.89,20.73,-9999.0,'1111122,1111122,1111122' 
DISL,ioos:station:DISL:MBLA:1,2016-03-02T14:00:00Z,30.4367,-88.0117,14.2,12.72,21.27,-9999.0,'1111122,1111122,1111122' 
DISL,ioos:station:DISL:MBLA:1,2016-03-02T14:30:00Z,30.4367,-88.0117,14.2,10.81,26.65,-9999.0,'1111122,1111122,1111122' 
DISL,ioos:station:DISL:MBLA:1,2016-03-02T15:00:00Z,30.4367,-88.0117,14.2,9.67,19.88,-9999.0,'1111122,1111122,1111122' 
DISL,ioos:station:DISL:MBLA:1,2016-03-02T15:30:00Z,30.4367,-88.0117,14.2,8.56,14.31,-9999.0,'1111122,1111122,1111122' 
DISL,ioos:station:DISL:MBLA:1,2016-03-02T16:00:00Z,30.4367,-88.0117,14.2,7.28,20.4,-9999.0,'1111122,1111122,1111122' 
DISL,ioos:station:DISL:MBLA:1,2016-03-02T16:30:00Z,30.4367,-88.0117,14.2,6.78,9.62,-9999.0,'1111122,1111122,1111122' 
DISL,ioos:station:DISL:MBLA:1,2016-03-02T17:00:00Z,30.4367,-88.0117,14.2,6.45,4.136,-9999.0,'1111122,1111122,1111122' 
DISL,ioos:station:DISL:MBLA:1,2016-03-02T17:30:00Z,30.4367,-88.0117,14.2,6.98,6.818,-9999.0,'1111122,1111122,1111122' 
DISL,ioos:station:DISL:MBLA:1,2016-03-02T18:00:00Z,30.4367,-88.0117,14.2,7.31,1.301,-9999.0,'1111122,1111122,1111122' 
DISL,ioos:station:DISL:MBLA:1,2016-03-02T18:30:00Z,30.4367,-88.0117,14.2,7.25,358.4,-9999.0,'1111122,1111122,1111122' 
DISL,ioos:station:DISL:MBLA:1,2016-03-02T19:00:00Z,30.4367,-88.0117,14.2,5.9,9.02,-9999.0,'1111122,1111122,1111122' 
DISL,ioos:station:DISL:MBLA:1,2016-03-02T19:30:00Z,30.4367,-88.0117,14.2,6.23,17.69,-9999.0,'1111122,1111122,1111122' 
DISL,ioos:station:DISL:MBLA:1,2016-03-02T20:00:00Z,30.4367,-88.0117,14.2,6.28,15.33,-9999.0,'1111122,1111122,1111122' 
DISL,ioos:station:DISL:MBLA:1,2016-03-02T20:30:00Z,30.4367,-88.0117,14.2,6.55,18.79,-9999.0,'1111122,1111122,1111122' 
DISL,ioos:station:DISL:MBLA:1,2016-03-02T21:00:00Z,30.4367,-88.0117,14.2,7.16,23.7,-9999.0,'1111122,1111122,1111122' 
DISL,ioos:station:DISL:MBLA:1,2016-03-02T21:30:00Z,30.4367,-88.0117,14.2,6.96,30.81,-9999.0,'1111122,1111122,1111122' 
DISL,ioos:station:DISL:MBLA:1,2016-03-02T22:00:00Z,30.4367,-88.0117,14.2,6.45,29.69,-9999.0,'1111122,1111122,1111122' 
DISL,ioos:station:DISL:MBLA:1,2016-03-02T22:30:00Z,30.4367,-88.0117,14.2,7.72,14.22,-9999.0,'1111122,1111122,1111122' 
DISL,ioos:station:DISL:MBLA:1,2016-03-02T23:00:00Z,30.4367,-88.0117,14.2,7.57,13.49,-9999.0,'1111122,1111122,1111122' 
DISL,ioos:station:DISL:MBLA:1,2016-03-02T23:30:00Z,30.4367,-88.0117,14.2,6.83,23.0,-9999.0,'1111122,1111122,1111122' 
DISL,ioos:station:DISL:MBLA:1,2016-03-03T00:00:00Z,30.4367,-88.0117,14.2,5.62,33.41,-9999.0,'1111122,1111122,1111122' 
DISL,ioos:station:DISL:MBLA:1,2016-03-03T00:30:00Z,30.4367,-88.0117,14.2,5.8,29.88,-9999.0,'1111122,1111122,1111122' 
DISL,ioos:station:DISL:MBLA:1,2016-03-03T01:00:00Z,30.4367,-88.0117,14.2,4.39,29.6,-9999.0,'1111122,1111122,1111122' 
DISL,ioos:station:DISL:MBLA:1,2016-03-03T01:30:00Z,30.4367,-88.0117,14.2,3.88,21.33,-9999.0,'1111122,1111122,1111122' 
DISL,ioos:station:DISL:MBLA:1,2016-03-03T02:00:00Z,30.4367,-88.0117,14.2,3.29,35.05,-9999.0,'1111122,1111122,1111122' 
DISL,ioos:station:DISL:MBLA:1,2016-03-03T02:30:00Z,30.4367,-88.0117,14.2,3.1,46.48,-9999.0,'1111122,1111122,1111122' 
DISL,ioos:station:DISL:MBLA:1,2016-03-03T03:00:00Z,30.4367,-88.0117,14.2,3.02,84.5,-9999.0,'1111122,1111122,1111122' 
DISL,ioos:station:DISL:MBLA:1,2016-03-03T03:30:00Z,30.4367,-88.0117,14.2,2.41,56.25,-9999.0,'1111122,1111122,1111122' 
DISL,ioos:station:DISL:MBLA:1,2016-03-03T04:00:00Z,30.4367,-88.0117,14.2,2.75,86.1,-9999.0,'1111122,1111122,1111122' 
DISL,ioos:station:DISL:MBLA:1,2016-03-03T04:30:00Z,30.4367,-88.0117,14.2,3.52,97.7,-9999.0,'1111122,1111122,1111122' 
DISL,ioos:station:DISL:MBLA:1,2016-03-03T05:00:00Z,30.4367,-88.0117,14.2,4.19,100.3,-9999.0,'1111122,1111122,1111122' 
DISL,ioos:station:DISL:MBLA:1,2016-03-03T05:30:00Z,30.4367,-88.0117,14.2,4.9,106.7,-9999.0,'1111122,1111122,1111122' 
DISL,ioos:station:DISL:MBLA:1,2016-03-03T06:00:00Z,30.4367,-88.0117,14.2,4.87,110.3,-9999.0,'1111122,1111122,1111122' 
DISL,ioos:station:DISL:MBLA:1,2016-03-03T06:30:00Z,30.4367,-88.0117,14.2,4.57,109.7,-9999.0,'1111122,1111122,1111122' 
DISL,ioos:station:DISL:MBLA:1,2016-03-03T07:00:00Z,30.4367,-88.0117,14.2,4.18,99.4,-9999.0,'1111122,1111122,1111122' 
DISL,ioos:station:DISL:MBLA:1,2016-03-03T07:30:00Z,30.4367,-88.0117,14.2,4.15,106.0,-9999.0,'1111122,1111122,1111122' 
DISL,ioos:station:DISL:MBLA:1,2016-03-03T08:00:00Z,30.4367,-88.0117,14.2,5.21,89.8,-9999.0,'1111122,1111122,1111122' 
DISL,ioos:station:DISL:MBLA:1,2016-03-03T08:30:00Z,30.4367,-88.0117,14.2,5.53,93.0,-9999.0,'1111122,1111122,1111122' 
DISL,ioos:station:DISL:MBLA:1,2016-03-03T09:00:00Z,30.4367,-88.0117,14.2,6.25,99.1,-9999.0,'1111122,1111122,1111122' 
DISL,ioos:station:DISL:MBLA:1,2016-03-03T09:30:00Z,30.4367,-88.0117,14.2,7.69,101.5,-9999.0,'1111122,1111122,1111122' 
DISL,ioos:station:DISL:MBLA:1,2016-03-03T10:00:00Z,30.4367,-88.0117,14.2,7.37,101.2,-9999.0,'1111122,1111122,1111122' 
DISL,ioos:station:DISL:MBLA:1,2016-03-03T10:30:00Z,30.4367,-88.0117,14.2,6.52,104.0,-9999.0,'1111122,1111122,1111122' 
DISL,ioos:station:DISL:MBLA:1,2016-03-03T11:00:00Z,30.4367,-88.0117,14.2,5.03,113.9,-9999.0,'1111122,1111122,1111122' 
DISL,ioos:station:DISL:MBLA:1,2016-03-03T11:30:00Z,30.4367,-88.0117,14.2,3.62,90.5,-9999.0,'1111122,1111122,1111122' 
DISL,ioos:station:DISL:MBLA:1,2016-03-03T12:00:00Z,30.4367,-88.0117,14.2,4.0,81.0,-9999.0,'1111122,1111122,1111122' 
DISL,ioos:station:DISL:MBLA:1,2016-03-03T12:30:00Z,30.4367,-88.0117,14.2,4.22,98.3,-9999.0,'1111122,1111122,1111122' 
DISL,ioos:station:DISL:MBLA:1,2016-03-03T13:00:00Z,30.4367,-88.0117,14.2,5.45,114.3,-9999.0,'1111122,1111122,1111122' 
DISL,ioos:station:DISL:MBLA:1,2016-03-03T13:30:00Z,30.4367,-88.0117,14.2,5.23,124.0,-9999.0,'1111122,1111122,1111122' 
DISL,ioos:station:DISL:MBLA:1,2016-03-03T14:00:00Z,30.4367,-88.0117,14.2,4.1,122.9,-9999.0,'1111122,1111122,1111122' 
DISL,ioos:station:DISL:MBLA:1,2016-03-03T14:30:00Z,30.4367,-88.0117,14.2,5.22,156.3,-9999.0,'1111122,1111122,1111122' 
DISL,ioos:station:DISL:MBLA:1,2016-03-03T15:00:00Z,30.4367,-88.0117,14.2,3.99,2.446,-9999.0,'1111122,1111122,1111122' 
DISL,ioos:station:DISL:MBLA:1,2016-03-03T15:30:00Z,30.4367,-88.0117,14.2,5.33,352.0,-9999.0,'1111122,1111122,1111122' 
DISL,ioos:station:DISL:MBLA:1,2016-03-03T16:00:00Z,30.4367,-88.0117,14.2,3.29,36.61,-9999.0,'1111122,1111122,1111122' 
DISL,ioos:station:DISL:MBLA:1,2016-03-03T16:30:00Z,30.4367,-88.0117,14.2,2.7,121.7,-9999.0,'1111122,1111122,1111122' 
DISL,ioos:station:DISL:MBLA:1,2016-03-03T17:00:00Z,30.4367,-88.0117,14.2,5.0,145.1,-9999.0,'1111122,1111122,1111122' 
DISL,ioos:station:DISL:MBLA:1,2016-03-03T17:30:00Z,30.4367,-88.0117,14.2,4.39,152.8,-9999.0,'1111122,1111122,1111122' 
DISL,ioos:station:DISL:MBLA:1,2016-03-03T18:00:00Z,30.4367,-88.0117,14.2,5.86,162.1,-9999.0,'1111122,1111122,1111122' 
DISL,ioos:station:DISL:MBLA:1,2016-03-03T18:30:00Z,30.4367,-88.0117,14.2,7.4,161.3,-9999.0,'1111122,1111122,1111122' 
DISL,ioos:station:DISL:MBLA:1,2016-03-03T19:00:00Z,30.4367,-88.0117,14.2,6.04,170.1,-9999.0,'1111122,1111122,1111122' 
DISL,ioos:station:DISL:MBLA:1,2016-03-03T19:30:00Z,30.4367,-88.0117,14.2,7.79,164.4,-9999.0,'1111122,1111122,1111122' 
DISL,ioos:station:DISL:MBLA:1,2016-03-03T20:00:00Z,30.4367,-88.0117,14.2,6.21,170.0,-9999.0,'1111122,1111122,1111122' 
DISL,ioos:station:DISL:MBLA:1,2016-03-03T20:30:00Z,30.4367,-88.0117,14.2,6.57,170.5,-9999.0,'1111122,1111122,1111122' 
DISL,ioos:station:DISL:MBLA:1,2016-03-03T21:00:00Z,30.4367,-88.0117,14.2,7.05,172.8,-9999.0,'1111122,1111122,1111122' 
DISL,ioos:station:DISL:MBLA:1,2016-03-03T21:30:00Z,30.4367,-88.0117,14.2,8.71,172.5,-9999.0,'1111122,1111122,1111122' 
DISL,ioos:station:DISL:MBLA:1,2016-03-03T22:00:00Z,30.4367,-88.0117,14.2,9.49,179.6,-9999.0,'1111122,1111122,1111122' 
DISL,ioos:station:DISL:MBLA:1,2016-03-03T22:30:00Z,30.4367,-88.0117,14.2,9.32,193.5,-9999.0,'1111122,1111122,1111122' 
DISL,ioos:station:DISL:MBLA:1,2016-03-03T23:00:00Z,30.4367,-88.0117,14.2,10.99,207.0,-9999.0,'1111122,1111122,1111122' 
DISL,ioos:station:DISL:MBLA:1,2016-03-03T23:30:00Z,30.4367,-88.0117,14.2,10.44,217.7,-9999.0,'1111122,1111122,1111122' 
DISL,ioos:station:DISL:MBLA:1,2016-03-04T00:00:00Z,30.4367,-88.0117,14.2,12.01,223.0,-9999.0,'1111122,1111122,1111122' 
DISL,ioos:station:DISL:MBLA:1,2016-03-04T00:30:00Z,30.4367,-88.0117,14.2,13.52,232.4,-9999.0,'1111122,1111122,1111122' 
DISL,ioos:station:DISL:MBLA:1,2016-03-04T01:00:00Z,30.4367,-88.0117,14.2,10.86,253.3,-9999.0,'1111122,1111122,1111122' 
DISL,ioos:station:DISL:MBLA:1,2016-03-04T01:30:00Z,30.4367,-88.0117,14.2,9.12,255.1,-9999.0,'1111122,1111122,1111122' 
DISL,ioos:station:DISL:MBLA:1,2016-03-04T02:00:00Z,30.4367,-88.0117,14.2,6.96,248.7,-9999.0,'1111122,1111122,1111122' 
DISL,ioos:station:DISL:MBLA:1,2016-03-04T02:30:00Z,30.4367,-88.0117,14.2,8.34,270.0,-9999.0,'1111122,1111122,1111122' 
DISL,ioos:station:DISL:MBLA:1,2016-03-04T03:00:00Z,30.4367,-88.0117,14.2,12.21,356.2,-9999.0,'1111122,1111122,1111122' 
DISL,ioos:station:DISL:MBLA:1,2016-03-04T03:30:00Z,30.4367,-88.0117,14.2,7.74,1.304,-9999.0,'1111122,1111122,1111122' 
DISL,ioos:station:DISL:MBLA:1,2016-03-04T04:00:00Z,30.4367,-88.0117,14.2,10.21,348.5,-9999.0,'1111122,1111122,1111122' 
DISL,ioos:station:DISL:MBLA:1,2016-03-04T04:30:00Z,30.4367,-88.0117,14.2,9.11,346.7,-9999.0,'1111122,1111122,1111122' 
DISL,ioos:station:DISL:MBLA:1,2016-03-04T05:00:00Z,30.4367,-88.0117,14.2,8.86,354.2,-9999.0,'1111122,1111122,1111122' 
DISL,ioos:station:DISL:MBLA:1,2016-03-04T05:30:00Z,30.4367,-88.0117,14.2,8.43,349.5,-9999.0,'1111122,1111122,1111122' 
DISL,ioos:station:DISL:MBLA:1,2016-03-04T06:00:00Z,30.4367,-88.0117,14.2,9.8,357.6,-9999.0,'1111122,1111122,1111122' 
DISL,ioos:station:DISL:MBLA:1,2016-03-04T06:30:00Z,30.4367,-88.0117,14.2,10.33,358.4,-9999.0,'1111122,1111122,1111122' 
DISL,ioos:station:DISL:MBLA:1,2016-03-04T07:00:00Z,30.4367,-88.0117,14.2,9.59,357.9,-9999.0,'1111122,1111122,1111122' 
DISL,ioos:station:DISL:MBLA:1,2016-03-04T07:30:00Z,30.4367,-88.0117,14.2,8.57,352.2,-9999.0,'1111122,1111122,1111122' 
DISL,ioos:station:DISL:MBLA:1,2016-03-04T08:00:00Z,30.4367,-88.0117,14.2,7.58,349.2,-9999.0,'1111122,1111122,1111122' 
DISL,ioos:station:DISL:MBLA:1,2016-03-04T08:30:00Z,30.4367,-88.0117,14.2,8.0,357.1,-9999.0,'1111122,1111122,1111122' 
DISL,ioos:station:DISL:MBLA:1,2016-03-04T09:00:00Z,30.4367,-88.0117,14.2,6.81,357.2,-9999.0,'1111122,1111122,1111122' 
DISL,ioos:station:DISL:MBLA:1,2016-03-04T09:30:00Z,30.4367,-88.0117,14.2,9.29,351.4,-9999.0,'1111122,1111122,1111122' 
DISL,ioos:station:DISL:MBLA:1,2016-03-04T10:00:00Z,30.4367,-88.0117,14.2,7.88,344.7,-9999.0,'1111122,1111122,1111122' 
DISL,ioos:station:DISL:MBLA:1,2016-03-04T10:30:00Z,30.4367,-88.0117,14.2,7.15,346.8,-9999.0,'1111122,1111122,1111122' 
DISL,ioos:station:DISL:MBLA:1,2016-03-04T11:00:00Z,30.4367,-88.0117,14.2,7.55,355.3,-9999.0,'1111122,1111122,1111122' 
DISL,ioos:station:DISL:MBLA:1,2016-03-04T11:30:00Z,30.4367,-88.0117,14.2,8.54,359.7,-9999.0,'1111122,1111122,1111122' 
DISL,ioos:station:DISL:MBLA:1,2016-03-04T12:00:00Z,30.4367,-88.0117,14.2,9.09,0.268,-9999.0,'1111122,1111122,1111122' 
DISL,ioos:station:DISL:MBLA:1,2016-03-04T12:30:00Z,30.4367,-88.0117,14.2,7.8,4.642,-9999.0,'1111122,1111122,1111122' 
DISL,ioos:station:DISL:MBLA:1,2016-03-04T13:00:00Z,30.4367,-88.0117,14.2,8.18,4.409,-9999.0,'1111122,1111122,1111122' 
DISL,ioos:station:DISL:MBLA:1,2016-03-04T13:30:00Z,30.4367,-88.0117,14.2,9.59,1.8,-9999.0,'1111122,1111122,1111122' 
DISL,ioos:station:DISL:MBLA:1,2016-03-04T14:00:00Z,30.4367,-88.0117,14.2,10.17,351.4,-9999.0,'1111122,1111122,1111122' 
DISL,ioos:station:DISL:MBLA:1,2016-03-04T14:30:00Z,30.4367,-88.0117,14.2,10.06,2.29,-9999.0,'1111122,1111122,1111122' 
DISL,ioos:station:DISL:MBLA:1,2016-03-04T15:00:00Z,30.4367,-88.0117,14.2,7.94,23.28,-9999.0,'1111122,1111122,1111122' 
DISL,ioos:station:DISL:MBLA:1,2016-03-04T15:30:00Z,30.4367,-88.0117,14.2,7.71,20.81,-9999.0,'1111122,1111122,1111122' 
DISL,ioos:station:DISL:MBLA:1,2016-03-04T16:00:00Z,30.4367,-88.0117,14.2,8.34,22.71,-9999.0,'1111122,1111122,1111122' 
DISL,ioos:station:DISL:MBLA:1,2016-03-04T16:30:00Z,30.4367,-88.0117,14.2,5.77,11.6,-9999.0,'1111122,1111122,1111122' 
DISL,ioos:station:DISL:MBLA:1,2016-03-04T17:00:00Z,30.4367,-88.0117,14.2,6.03,6.88,-9999.0,'1111122,1111122,1111122' 
DISL,ioos:station:DISL:MBLA:1,2016-03-04T17:30:00Z,30.4367,-88.0117,14.2,7.45,12.15,-9999.0,'1111122,1111122,1111122' 
DISL,ioos:station:DISL:MBLA:1,2016-03-04T18:00:00Z,30.4367,-88.0117,14.2,7.69,17.03,-9999.0,'1111122,1111122,1111122' 
DISL,ioos:station:DISL:MBLA:1,2016-03-04T18:30:00Z,30.4367,-88.0117,14.2,8.35,15.5,-9999.0,'1111122,1111122,1111122' 
DISL,ioos:station:DISL:MBLA:1,2016-03-04T19:00:00Z,30.4367,-88.0117,14.2,8.66,15.73,-9999.0,'1111122,1111122,1111122' 
DISL,ioos:station:DISL:MBLA:1,2016-03-04T19:30:00Z,30.4367,-88.0117,14.2,8.66,20.41,-9999.0,'1111122,1111122,1111122' 
DISL,ioos:station:DISL:MBLA:1,2016-03-04T20:00:00Z,30.4367,-88.0117,14.2,7.55,14.9,-9999.0,'1111122,1111122,1111122' 
DISL,ioos:station:DISL:MBLA:1,2016-03-04T20:30:00Z,30.4367,-88.0117,14.2,8.0,14.66,-9999.0,'1111122,1111122,1111122' 
DISL,ioos:station:DISL:MBLA:1,2016-03-04T21:00:00Z,30.4367,-88.0117,14.2,6.75,17.83,-9999.0,'1111122,1111122,1111122' 
DISL,ioos:station:DISL:MBLA:1,2016-03-04T21:30:00Z,30.4367,-88.0117,14.2,6.05,21.45,-9999.0,'1111122,1111122,1111122' 
DISL,ioos:station:DISL:MBLA:1,2016-03-04T22:00:00Z,30.4367,-88.0117,14.2,5.73,16.68,-9999.0,'1111122,1111122,1111122' 
DISL,ioos:station:DISL:MBLA:1,2016-03-04T22:30:00Z,30.4367,-88.0117,14.2,5.47,23.48,-9999.0,'1111122,1111122,1111122' 
DISL,ioos:station:DISL:MBLA:1,2016-03-04T23:00:00Z,30.4367,-88.0117,14.2,4.57,26.76,-9999.0,'1111122,1111122,1111122' 
DISL,ioos:station:DISL:MBLA:1,2016-03-04T23:30:00Z,30.4367,-88.0117,14.2,4.88,21.42,-9999.0,'1111122,1111122,1111122' 
DISL,ioos:station:DISL:MBLA:1,2016-03-05T00:00:00Z,30.4367,-88.0117,14.2,4.11,21.07,-9999.0,'1111122,1111122,1111122' 
DISL,ioos:station:DISL:MBLA:1,2016-03-05T00:30:00Z,30.4367,-88.0117,14.2,4.02,11.78,-9999.0,'1111122,1111122,1111122' 
DISL,ioos:station:DISL:MBLA:1,2016-03-05T01:00:00Z,30.4367,-88.0117,14.2,4.69,33.27,-9999.0,'1111122,1111122,1111122' 
DISL,ioos:station:DISL:MBLA:1,2016-03-05T01:30:00Z,30.4367,-88.0117,14.2,3.73,21.07,-9999.0,'1111122,1111122,1111122' 
DISL,ioos:station:DISL:MBLA:1,2016-03-05T02:00:00Z,30.4367,-88.0117,14.2,1.95,351.1,-9999.0,'1111122,1111122,1111122' 
DISL,ioos:station:DISL:MBLA:1,2016-03-05T02:30:00Z,30.4367,-88.0117,14.2,2.05,353.1,-9999.0,'1111122,1111122,1111122' 
DISL,ioos:station:DISL:MBLA:1,2016-03-05T03:00:00Z,30.4367,-88.0117,14.2,3.02,306.8,-9999.0,'1111122,1111122,1111122' 
DISL,ioos:station:DISL:MBLA:1,2016-03-05T03:30:00Z,30.4367,-88.0117,14.2,3.18,319.7,-9999.0,'1111122,1111122,1111122' 